TimeCDT,TemperatureF,Dew PointF,Humidity,Sea Level PressureIn,VisibilityMPH,Wind Direction,Wind SpeedMPH,Gust SpeedMPH,PrecipitationIn,Events,Conditions,WindDirDegrees,DateUTC
12:53 AM,73.0,68.0,84,29.96,8.0,SSW,3.5,-,N/A,,Clear,200,2013-05-19 05:53:00
1:53 AM,68.0,66.0,93,29.96,6.0,Calm,Calm,-,N/A,,Clear,0,2013-05-19 06:53:00
2:53 AM,68.0,66.0,93,29.96,4.0,SE,3.5,-,N/A,,Clear,140,2013-05-19 07:53:00
3:53 AM,70.0,68.0,93,29.98,6.0,South,4.6,-,N/A,,Clear,170,2013-05-19 08:53:00
4:53 AM,70.0,68.0,93,29.98,7.0,SSE,6.9,-,N/A,,Clear,160,2013-05-19 09:53:00
5:49 AM,69.8,68.0,94,29.95,6.0,SSE,6.9,-,N/A,,Mostly Cloudy,160,2013-05-19 10:49:00
5:53 AM,70.0,68.0,93,29.98,7.0,SSE,6.9,-,N/A,,Mostly Cloudy,160,2013-05-19 10:53:00
7:48 AM,73.4,69.8,88,29.98,6.0,SSE,5.8,-,N/A,,Mostly Cloudy,150,2013-05-19 12:48:00
7:53 AM,73.0,70.0,90,30.01,5.0,SSE,6.9,-,N/A,,Mostly Cloudy,150,2013-05-19 12:53:00
8:53 AM,73.9,70.0,87,30.03,6.0,South,4.6,-,N/A,,Overcast,190,2013-05-19 13:53:00
9:24 AM,75.2,71.6,89,30.01,7.0,South,6.9,-,N/A,,Mostly Cloudy,190,2013-05-19 14:24:00
9:53 AM,77.0,71.1,82,30.03,8.0,South,8.1,-,N/A,,Mostly Cloudy,180,2013-05-19 14:53:00
10:53 AM,80.1,71.1,74,30.02,9.0,South,11.5,16.1,N/A,,Mostly Cloudy,180,2013-05-19 15:53:00
11:53 AM,82.9,70.0,65,30.01,10.0,South,9.2,17.3,N/A,,Mostly Cloudy,190,2013-05-19 16:53:00
12:53 PM,84.0,70.0,63,29.99,10.0,South,11.5,-,N/A,,Partly Cloudy,190,2013-05-19 17:53:00
3:53 PM,87.1,70.0,57,29.95,10.0,South,12.7,17.3,N/A,,Clear,180,2013-05-19 20:53:00
4:53 PM,87.1,69.1,55,29.94,10.0,SSW,8.1,-,N/A,,Clear,200,2013-05-19 21:53:00
5:53 PM,86.0,69.1,57,29.92,10.0,South,9.2,-,N/A,,Clear,190,2013-05-19 22:53:00
6:53 PM,84.0,70.0,63,29.91,10.0,South,6.9,-,N/A,,Clear,180,2013-05-19 23:53:00
7:53 PM,80.1,70.0,71,29.92,10.0,SSE,5.8,-,N/A,,Clear,160,2013-05-20 00:53:00
8:53 PM,77.0,70.0,79,29.93,10.0,SSE,8.1,-,N/A,,Clear,160,2013-05-20 01:53:00
9:53 PM,75.0,69.1,82,29.95,10.0,South,4.6,-,N/A,,Clear,180,2013-05-20 02:53:00
11:53 PM,75.9,70.0,82,29.96,10.0,South,11.5,-,N/A,,Clear,170,2013-05-20 04:53:00